Regional Weather Roundup
Issued by NWS Sterling, VA

Home | Current Version | Previous Version | Text Only | Print | Product List | Glossary Off
Versions: 1 2 3 4 5 6 7 8 9 10 11 12 13 14 15 16 17 18 19 20 21 22 23 24 25 26 27 28 29 30 31 32 33 34 35 36 37 38 39 40 41 42 43 44 45 46 47 48 49 50

000
ASUS41 KLWX 051210
RWRLWX

REGIONAL WEATHER ROUNDUP
NATIONAL WEATHER SERVICE BALTIMORE MD/WASHINGTON DC
800 AM EDT TUE MAY 05 2015

Note: "FAIR" indicates few or no clouds below 12,000 feet
with no significant weather and/or obstructions to visibility.
 TC=TEMPERATURE CELSIUS

 * =Non NWS site. Station does not report precipitation (e.g. rain,
    snow, etc.), thunder, or fog.

DCZ001-MDZ009-015-VAZ040>042-051-053>054-051300-
WASHINGTON METRO

CITY           SKY/WX    TMP DP  RH WIND       PRES   REMARKS
WASHINGTON NAT MOSUNNY   68  57  68 S7        30.26R
DULLES         MOSUNNY   64  56  75 S3        30.26R
ANDREWS AFB    MOSUNNY   67  55  63 SW9       30.25R
FT BELVOIR     SUNNY     63  58  84 VRB2      30.26R
QUANTICO       MOSUNNY   66  56  70 S7        30.28R
COLLEGE PARK*  SUNNY     68  55  64 SW3       30.25R
LEESBURG*      PTSUNNY   64  59  82 SW3       30.27R
GAITHERSBURG*  CLOUDY    64  55  72 SW3       30.29R

$$

MDZ006>007-011-014-051300-
BALTIMORE METRO

CITY           SKY/WX    TMP DP  RH WIND       PRES   REMARKS
BWI AIRPORT    MOSUNNY   66  56  70 W5        30.24R
MD SCIENCE CTR   N/A     68  54  60 MISG      30.25R
ANNAPOLIS      SUNNY     68  53  58 VRB6      30.24R
FORT MEADE*    MOSUNNY   61  55  82 CALM      30.27R

$$

MDZ012-015-019>023-051300-
MARYLAND EASTERN SHORE

CITY           SKY/WX    TMP DP  RH WIND       PRES   REMARKS
OCEAN CITY     SUNNY     68  53  58 SW13G22   30.27R
SALISBURY      SUNNY     67  54  63 SW13      30.27R
BAY BRIDGE AP*   N/A    N/A N/A N/A SW6       30.25R
CAMBRIDGE*     SUNNY     66  55  68 SW6       30.26R
EASTON*        SUNNY     68  57  68 SW7       30.29

$$

MDZ017>025-051300-
SOUTHERN MARYLAND

CITY           SKY/WX    TMP DP  RH WIND       PRES   REMARKS
PATUXENT RIVER SUNNY     66  56  70 SW16G24   30.26R
ST INIGOES     SUNNY     66  56  70 SW10      30.27R
LEONARDTOWN*   SUNNY     64  54  68 SW9       30.28R

$$

MDZ003>005-051300-
NORTH CENTRAL MARYLAND

CITY           SKY/WX    TMP DP  RH WIND       PRES   REMARKS
FREDERICK*     PTSUNNY   64  55  72 CALM      30.28R
HAGERSTOWN APT CLOUDY    65  52  62 CALM      30.26R
WESTMINSTER*   PTSUNNY   64  55  72 CALM      30.25R

$$

MDZ501>502-051300-
WESTERN MARYLAND

CITY           SKY/WX    TMP DP  RH WIND       PRES   REMARKS
OAKLAND*       CLOUDY    61  57  88 W3        30.33R
CUMBERLAND*    CLOUDY    63  55  77 CALM      30.30S

$$

VAZ025>031-051300-
SHENANDOAH VALLEY

CITY           SKY/WX    TMP DP  RH WIND       PRES   REMARKS
WINCHESTER*    PTSUNNY   64  46  52 SW6       30.27R
FRONT ROYAL*   FAIR      61  54  77 CALM      30.27R
LURAY*         PTSUNNY   59  59 100 CALM      30.29R
NEW MARKET*    PTSUNNY   54  51  90 CALM      30.29R
STAUNTON*      CLOUDY    58  53  83 CALM      30.32R
WAYNESBORO*    FAIR      56  52  84 SW7       30.31R

$$

WVZ021-048>050-054>055-051300-
EASTERN WEST VIRGINIA PANHANDLE

CITY           SKY/WX    TMP DP  RH WIND       PRES   REMARKS
MARTINSBURG    PTSUNNY   64  55  72 S3        30.25R
PETERSBURG*    PTSUNNY   57  50  78 CALM      30.29S

$$

VAZ036>039-050-051300-
CENTRAL FOOTHILLS

CITY           SKY/WX    TMP DP  RH WIND       PRES   REMARKS
CHARLOTTESVILL SUNNY     62  55  77 S5        30.27R
CULPEPER*      NOT AVBL
ORANGE*        SUNNY     63  55  77 CALM      30.29R
GORDONSVILLE*  FAIR      61  55  78 SW5       30.28R
WARRENTON*     FAIR      65  58  76 S6        30.27R

$$

VAZ055>057-051300-
NORTH AND CENTRAL PIEDMONT

CITY           SKY/WX    TMP DP  RH WIND       PRES   REMARKS
FREDERICKSBRG* SUNNY     66  57  71 S5        30.27R
STAFFORD*      SUNNY     64  53  68 SW3       30.31R

$$

NCZ024-NYZ072-PAZ021-071-VAZ022-071-051300-
OTHER REGIONAL OBSERVATIONS

CITY           SKY/WX    TMP DP  RH WIND       PRES   REMARKS
NEW YORK CITY  SUNNY     69  49  48 W6        30.22R
PHILADELPHIA   PTSUNNY   66  54  65 W10       30.23R
PITTSBURGH     HVY RAIN  62  59  90 SW7       30.30R FOG
ROANOKE        SUNNY     64  53  67 NW5       30.34R
RICHMOND       MOSUNNY   65  55  70 SW8       30.30R
RALEIGH        MOSUNNY   62  56  80 SW7       30.36R

$$

ANZ530>537-051300-
MARINE OBSERVATIONS

STATION/POSITION TIME  TEMP    WIND        PRES
                       AIR SEA DIR/SP/G
                 (UTC) (F)     (DEG/KT/KT) (MB)
THOMAS PT LIGHT  1200   63 59  190/ 10/ 10 1025.1R
BALT KEY BRIDGE  1100   66     210/  4/  5 1023.1R
COVE POINT       1100   65     270/ 16/ 20 1024.2R
LEWISETTA        1106   65 65              1024.3R
SOLOMONS ISLAND  1106      60                N/A
PINEY POINT      1106          270/  5/  7   N/A

$$




USA.gov is the U.S. government's official web portal to all federal, state and local government web resources and services.